Wind_Speed
68 64 59 59 61 64 67 69 70 72 71 66 61 54 49 45 43 41 40 37 34 32 31 33 39 44 50 60 68 72 70 63 61 69 82 95 96 94 91 90 88 86 85
67 63 60 60 62 65 69 71 74 74 70 61 49 39 32 27 28 30 31 31 30 29 28 30 36 41 46 54 63 68 68 64 58 60 72 87 93 91 88 87 86 86 85
67 64 61 61 63 67 70 73 76 73 63 49 35 23 16 11 10 14 19 22 24 25 26 28 33 38 42 49 58 64 65 63 59 54 62 77 88 88 85 83 84 85 84
67 65 62 62 64 68 71 75 77 70 57 39 24 17 14 11 7 2 7 13 18 20 23 26 30 35 39 45 53 59 61 59 58 53 55 67 81 84 82 79 80 85 85
66 65 64 64 66 69 72 76 77 68 53 35 16 11 11 11 11 6 2 7 12 16 20 24 28 33 37 41 48 53 56 56 55 53 53 61 76 83 82 78 76 81 83
66 66 65 65 66 69 72 76 77 67 51 35 17 3 5 6 7 3 1 3 7 12 17 22 27 31 34 38 43 48 50 51 50 50 52 60 74 87 87 81 75 76 79
65 66 66 66 67 70 72 76 77 69 53 38 23 10 2 4 3 3 4 3 4 8 14 21 26 29 32 36 40 43 44 44 44 45 49 57 74 89 91 83 78 77 78
64 66 66 66 67 69 71 74 77 71 57 41 29 18 8 4 6 6 6 6 4 7 13 20 25 28 31 34 36 38 39 38 37 38 43 52 71 90 97 91 82 78 77
63 65 66 65 66 68 70 73 75 74 63 47 35 26 17 11 8 8 7 5 4 7 13 20 24 28 30 32 33 34 34 33 32 33 36 46 64 87 99 99 90 80 77
62 64 64 64 65 66 69 71 74 75 70 57 42 32 24 18 14 11 8 6 3 7 12 18 24 28 30 31 30 30 30 29 28 29 32 39 53 76 96 101 96 87 79
61 63 63 62 63 64 67 70 72 73 72 66 53 40 31 24 19 14 10 7 4 4 10 16 22 27 30 30 29 28 27 26 25 25 28 34 45 60 79 91 95 89 82
60 61 61 60 61 62 64 67 69 70 70 70 64 51 39 31 24 19 14 9 5 1 7 13 20 26 29 30 29 28 27 25 24 23 25 30 38 49 60 71 79 81 80
58 58 58 59 59 59 61 63 66 67 68 69 68 63 52 40 30 24 19 13 8 4 3 10 18 24 28 29 29 28 27 25 24 23 24 28 34 43 50 57 62 66 71
55 55 56 56 57 58 59 60 62 64 66 67 67 66 62 53 41 30 23 18 13 7 0 7 15 22 27 28 29 28 27 25 24 23 23 26 30 37 44 50 56 61 64
53 53 53 54 55 57 58 58 59 61 63 64 65 65 64 62 55 43 31 23 17 12 5 3 12 20 25 28 28 28 27 26 25 24 23 25 28 33 39 45 51 56 60
50 51 50 51 52 54 56 57 58 58 59 60 62 63 63 62 61 56 45 32 23 16 11 3 7 16 24 28 28 29 28 27 26 25 24 25 27 30 35 40 47 53 58
48 49 49 49 49 50 52 54 55 56 56 56 57 59 60 60 58 58 55 47 34 24 16 9 2 11 20 26 29 29 29 28 28 27 27 27 28 29 32 36 42 48 55
47 47 47 47 47 48 49 51 52 53 54 54 54 55 56 57 57 56 55 54 48 37 25 17 8 3 14 23 28 30 30 30 29 30 29 28 28 29 31 33 38 43 50
45 45 45 46 46 46 47 48 49 51 51 52 52 52 52 53 54 55 53 52 51 47 38 27 17 7 5 17 25 30 31 31 31 31 32 31 30 30 31 31 34 38 44
43 43 44 44 44 45 45 46 46 48 48 49 49 49 49 49 50 51 52 51 49 48 46 40 29 18 7 7 18 27 31 33 33 33 34 34 34 33 33 33 34 36 40
43 42 42 43 43 44 44 44 45 45 46 47 48 48 48 48 47 47 48 48 48 46 44 42 39 31 20 7 7 19 28 33 35 35 35 35 36 36 36 36 37 37 39
43 41 41 41 42 42 43 43 44 44 44 44 45 46 47 47 46 45 45 45 45 44 43 41 39 36 32 22 8 7 19 29 34 37 37 37 38 39 39 39 40 40 41
44 42 40 40 40 41 42 42 42 42 42 42 43 43 44 45 45 45 43 42 41 41 40 39 37 35 32 30 24 11 5 18 29 36 39 40 40 40 41 42 43 44 44
44 42 41 39 38 38 39 40 40 40 41 41 41 41 42 42 43 43 43 41 39 38 38 37 36 34 31 28 26 23 15 1 15 28 36 41 43 44 44 45 46 46 47
44 43 42 40 39 38 37 38 38 39 39 40 40 40 40 40 40 40 41 40 38 37 36 35 34 32 30 27 24 22 20 16 7 9 24 35 42 46 48 48 49 50 50
43 42 42 41 40 39 37 36 36 37 38 38 39 39 39 38 38 37 38 38 38 36 34 34 33 31 29 26 23 20 18 17 15 9 5 17 31 42 48 51 52 53 54
Wind_Direction
341 339 338 338 337 338 337 336 333 329 323 317 311 304 295 283 274 268 263 259 254 251 248 240 230 224 219 215 213 213 214 216 219 221 220 215 212 212 213 216 217 218 218
343 342 341 341 341 342 341 340 338 334 329 326 323 318 308 291 272 260 255 252 248 246 243 237 229 222 217 213 211 211 212 213 215 218 218 216 211 209 210 213 216 217 218
345 345 344 344 345 346 346 345 343 341 339 339 343 352 357 339 290 257 245 241 239 238 237 233 226 219 215 211 209 209 211 213 213 215 216 215 211 208 207 210 214 217 218
348 348 347 348 349 350 351 351 350 349 349 354 9 43 50 35 16 325 229 227 229 229 229 227 222 216 212 208 206 207 210 212 213 215 216 213 210 206 204 205 209 214 217
351 352 351 352 353 354 356 356 356 356 357 1 20 75 85 61 45 49 145 211 219 222 222 221 217 212 208 205 203 205 208 211 214 217 217 212 208 203 199 198 202 208 212
355 355 355 355 356 358 0 1 2 2 2 3 4 39 134 105 75 54 35 229 222 219 217 215 211 206 204 201 200 202 205 210 214 219 219 214 207 202 197 196 199 203 206
357 358 358 359 360 2 4 6 7 7 7 8 6 357 269 225 264 303 314 300 254 225 215 209 204 200 199 198 197 199 203 209 215 220 222 217 208 203 198 195 195 198 201
359 0 1 1 3 5 8 9 11 12 13 13 14 13 2 315 302 320 327 316 275 230 212 205 199 195 194 194 195 197 202 208 214 220 223 218 210 204 200 195 192 192 195
359 2 3 3 5 8 10 13 15 16 18 19 21 24 24 17 358 356 346 329 276 226 207 200 195 192 191 191 192 196 200 206 212 217 220 216 211 205 203 199 195 193 195
0 4 5 5 7 10 12 15 18 19 21 23 24 26 28 28 24 21 11 347 292 224 205 197 193 190 190 189 191 194 197 202 208 213 215 213 210 207 204 204 201 198 198
2 5 7 7 9 11 14 17 20 21 23 25 26 27 27 26 24 23 20 11 346 230 205 196 192 191 190 189 190 192 195 198 204 209 208 208 207 206 206 207 208 206 203
4 6 9 10 11 13 16 18 21 23 25 27 28 29 28 26 23 21 19 17 11 288 205 196 194 192 191 190 190 192 193 195 199 202 201 200 200 201 204 207 210 212 210
5 7 10 12 13 14 17 19 22 24 26 28 30 31 30 29 26 23 21 21 19 10 209 197 194 194 193 193 192 192 193 194 195 196 194 193 194 195 197 202 206 209 211
6 7 10 13 15 16 17 19 21 24 26 28 30 31 32 32 30 27 24 24 25 25 36 199 196 195 195 195 194 193 193 193 192 192 190 190 191 191 193 195 199 202 205
6 8 10 13 15 17 18 19 20 22 25 28 30 31 33 34 34 32 30 27 25 28 34 192 198 197 197 197 197 196 194 193 191 189 187 187 188 190 191 190 192 196 199
7 8 11 13 15 17 17 18 20 21 23 26 28 30 32 33 34 34 34 32 30 29 31 51 195 199 199 199 199 199 197 194 191 188 187 186 186 188 191 191 191 192 195
7 9 11 13 15 17 18 18 19 20 22 24 27 29 30 32 34 35 35 35 34 33 33 38 121 197 201 201 202 201 199 197 192 188 186 185 185 187 190 192 193 193 194
6 9 11 13 14 16 17 18 19 20 21 23 25 27 29 31 32 34 35 35 36 35 35 36 43 171 200 203 204 204 202 200 196 192 189 186 186 186 188 191 193 194 195
4 8 11 13 14 15 16 17 17 18 20 22 23 25 27 29 31 32 34 35 36 36 36 36 38 48 186 203 205 206 205 204 202 198 194 191 189 188 188 188 191 193 194
1 6 9 11 13 14 15 16 16 17 19 21 22 24 25 27 29 30 32 34 35 36 37 38 37 38 48 194 206 208 208 208 206 205 201 198 195 192 191 190 190 191 193
359 3 6 9 11 13 15 15 16 16 17 18 20 22 23 25 27 28 30 31 33 35 36 37 38 38 38 49 200 209 211 211 210 209 208 205 201 198 196 195 193 192 193
358 360 2 5 8 10 13 14 16 16 16 17 18 19 21 22 23 25 27 28 30 32 34 35 36 38 38 39 42 207 213 214 214 213 212 210 208 205 203 201 199 197 197
357 358 359 1 3 6 9 11 13 14 15 16 16 17 18 19 20 21 23 24 26 28 31 32 34 35 36 38 39 38 215 218 219 218 217 215 213 211 209 207 205 203 202
357 357 357 358 358 0 3 6 8 10 12 13 14 15 15 16 17 18 19 20 21 23 26 29 30 31 33 35 36 37 36 329 223 222 222 221 219 217 215 213 211 208 207
357 357 357 356 356 356 357 359 1 3 6 9 10 12 12 12 13 14 15 16 17 18 20 22 25 26 27 28 30 33 33 32 20 236 226 225 224 223 221 219 217 215 213
355 356 356 356 355 354 353 353 354 356 359 2 5 7 8 8 8 9 11 13 13 14 15 16 17 18 19 20 21 22 23 23 20 9 285 234 228 226 224 223 222 220 219
Height
5517 5501 5486 5473 5459 5444 5427 5410 5391 5371 5350 5332 5316 5305 5298 5295 5296 5300 5305 5310 5316 5320 5323 5326 5331 5339 5348 5360 5375 5391 5407 5419 5430 5439 5451 5469 5490 5510 5528 5545 5561 5576 5590
5511 5495 5480 5466 5451 5435 5417 5398 5377 5353 5330 5310 5295 5285 5278 5276 5278 5283 5289 5297 5304 5308 5312 5315 5320 5328 5337 5348 5362 5378 5393 5408 5419 5426 5435 5453 5474 5494 5513 5531 5546 5562 5576
5506 5489 5474 5459 5444 5428 5409 5388 5364 5339 5316 5298 5286 5278 5273 5270 5269 5273 5279 5286 5293 5299 5303 5307 5312 5319 5328 5338 5351 5367 5382 5396 5408 5416 5425 5439 5459 5480 5500 5518 5533 5548 5562
5502 5485 5470 5455 5438 5421 5401 5379 5354 5329 5308 5293 5285 5280 5276 5272 5271 5272 5276 5281 5286 5291 5296 5300 5305 5312 5321 5331 5343 5357 5372 5385 5398 5407 5416 5428 5446 5467 5487 5505 5519 5533 5548
5499 5482 5466 5450 5433 5416 5396 5374 5348 5324 5305 5293 5286 5282 5279 5276 5274 5274 5276 5279 5283 5287 5290 5294 5299 5306 5315 5325 5337 5350 5363 5376 5387 5397 5406 5417 5434 5454 5474 5490 5503 5517 5533
5496 5479 5463 5447 5430 5413 5393 5371 5347 5324 5305 5294 5287 5284 5281 5279 5277 5277 5278 5280 5282 5284 5287 5291 5296 5303 5311 5320 5331 5343 5356 5367 5377 5386 5395 5406 5420 5439 5458 5473 5489 5503 5519
5495 5478 5462 5446 5429 5411 5392 5371 5349 5327 5308 5296 5289 5285 5283 5281 5280 5280 5281 5281 5282 5283 5285 5288 5293 5300 5308 5317 5327 5338 5349 5360 5369 5377 5384 5394 5407 5426 5445 5462 5475 5488 5505
5495 5479 5462 5447 5430 5413 5395 5375 5353 5332 5313 5300 5292 5287 5285 5283 5282 5282 5282 5282 5282 5282 5284 5287 5292 5299 5306 5315 5325 5335 5344 5354 5362 5369 5376 5383 5394 5411 5430 5446 5460 5475 5490
5496 5480 5464 5448 5433 5417 5400 5381 5360 5340 5321 5307 5297 5291 5287 5286 5284 5283 5282 5281 5281 5282 5284 5287 5292 5299 5306 5314 5323 5332 5341 5349 5355 5362 5368 5374 5382 5396 5412 5429 5445 5461 5477
5498 5482 5466 5450 5435 5420 5404 5386 5367 5348 5331 5315 5304 5297 5292 5289 5286 5284 5282 5281 5281 5282 5284 5288 5293 5299 5306 5313 5322 5330 5338 5345 5351 5357 5362 5367 5374 5384 5399 5414 5430 5448 5466
5498 5483 5469 5454 5439 5424 5408 5392 5375 5358 5342 5326 5313 5304 5298 5293 5289 5286 5284 5283 5282 5283 5285 5289 5294 5300 5306 5314 5321 5329 5336 5342 5348 5353 5358 5363 5369 5378 5391 5405 5420 5437 5456
5499 5485 5472 5458 5444 5430 5415 5401 5386 5370 5355 5339 5325 5313 5304 5298 5294 5290 5287 5285 5284 5285 5287 5290 5295 5300 5307 5314 5321 5328 5334 5341 5346 5351 5355 5360 5366 5375 5386 5399 5413 5429 5447
5501 5488 5476 5463 5450 5437 5424 5410 5396 5382 5367 5352 5338 5325 5313 5305 5299 5294 5291 5288 5287 5287 5288 5291 5295 5301 5308 5314 5321 5327 5334 5340 5345 5350 5354 5359 5365 5374 5384 5396 5409 5424 5440
5504 5492 5480 5468 5457 5444 5431 5418 5406 5393 5379 5364 5350 5337 5325 5314 5306 5300 5295 5292 5290 5290 5290 5292 5296 5301 5308 5314 5321 5327 5333 5339 5344 5350 5354 5360 5366 5373 5382 5392 5405 5419 5434
5507 5496 5484 5473 5461 5449 5437 5425 5413 5401 5388 5376 5363 5350 5338 5327 5316 5307 5301 5297 5295 5293 5293 5294 5297 5302 5307 5314 5320 5327 5333 5338 5344 5350 5355 5360 5366 5373 5381 5390 5401 5414 5427
5510 5500 5489 5477 5466 5454 5442 5430 5419 5408 5396 5385 5373 5361 5350 5338 5328 5319 5310 5303 5299 5297 5296 5296 5298 5302 5307 5313 5319 5326 5332 5338 5343 5349 5355 5360 5367 5373 5381 5389 5398 5409 5421
5513 5503 5492 5481 5471 5460 5449 5438 5427 5416 5405 5394 5384 5373 5362 5351 5341 5331 5322 5313 5306 5302 5300 5299 5300 5302 5306 5312 5318 5324 5331 5337 5343 5349 5354 5360 5366 5373 5380 5387 5395 5405 5415
5515 5505 5495 5485 5475 5465 5455 5444 5434 5424 5414 5404 5394 5383 5373 5363 5353 5343 5333 5325 5316 5310 5305 5304 5303 5304 5306 5311 5317 5323 5329 5335 5342 5348 5354 5360 5366 5372 5379 5386 5393 5401 5411
5517 5507 5498 5488 5479 5469 5459 5450 5440 5431 5421 5411 5402 5392 5383 5373 5364 5355 5345 5337 5328 5321 5314 5309 5307 5307 5308 5311 5316 5321 5327 5334 5340 5346 5352 5358 5365 5371 5378 5384 5391 5399 5407
5519 5510 5501 5492 5483 5474 5464 5455 5446 5437 5428 5419 5410 5401 5393 5383 5374 5365 5356 5348 5340 5332 5325 5319 5314 5311 5311 5312 5315 5320 5326 5332 5338 5344 5350 5357 5363 5369 5376 5383 5390 5397 5404
5520 5511 5503 5494 5486 5477 5469 5460 5451 5442 5434 5425 5416 5408 5399 5390 5382 5374 5366 5358 5350 5343 5336 5330 5324 5319 5315 5314 5316 5319 5324 5329 5335 5341 5347 5354 5360 5367 5373 5380 5387 5394 5401
5522 5513 5504 5497 5489 5481 5472 5464 5455 5447 5439 5430 5422 5414 5406 5398 5390 5382 5374 5367 5359 5352 5346 5339 5334 5328 5323 5319 5318 5319 5322 5327 5332 5338 5343 5350 5356 5363 5370 5376 5383 5390 5398
5522 5513 5505 5498 5490 5483 5475 5467 5459 5452 5443 5435 5427 5419 5412 5404 5396 5389 5381 5374 5367 5360 5354 5347 5342 5337 5332 5327 5324 5322 5322 5324 5328 5333 5339 5345 5351 5357 5364 5371 5378 5385 5392
5522 5513 5505 5498 5491 5484 5477 5470 5463 5455 5448 5440 5432 5424 5416 5409 5401 5394 5387 5380 5373 5366 5360 5354 5348 5343 5339 5334 5331 5327 5325 5324 5325 5329 5333 5339 5344 5350 5357 5363 5371 5378 5385
5522 5514 5506 5498 5491 5485 5478 5471 5464 5458 5450 5443 5435 5428 5420 5413 5406 5399 5392 5385 5378 5371 5365 5359 5353 5348 5343 5339 5336 5332 5329 5327 5325 5325 5327 5331 5336 5342 5348 5354 5361 5368 5375
5522 5514 5507 5499 5491 5484 5478 5471 5465 5458 5452 5445 5437 5430 5423 5416 5409 5402 5396 5389 5382 5375 5369 5363 5357 5351 5346 5342 5338 5335 5332 5329 5326 5324 5323 5324 5326 5331 5337 5343 5350 5357 5364